User: anonymous   Login
Location: Unspecified
(0.0000°N, 0.0000°E)
Time: 08:38:37
(UTC+00:00)
Language:

COSMOS 2468 - Orbit

View from above orbital plane
View from above orbital plane
View from above satellite
View from above satellite

Ground track
Ground track

The orbit data is extracted from the following two-line orbital elements,

1 37154U 10043C   15214.88493898  .00000028  00000-0  12970-3 0  9990
2 37154 082.4606 028.4160 0013926 349.9826 010.0977 12.42902077222296
Epoch (UTC): 02 August 2015 21:14:18
Eccentricity: 0.0013926
inclination: 82.4606°
perigee height: 1483 km
apogee height: 1505 km
right ascension of ascending node: 28.4160°
argument of perigee: 349.9826°
revolutions per day: 12.42902077
mean anomaly at epoch: 10.0977°
orbit number at epoch: 22229

The dashed part of the orbit path shows where the satellite is in the earth's shadow,  

DLR